IT9FBN-3 Weather Reports


Display with metric or nautical units.
time (UTC)temp
F
wind
direction
speed
MPH
gust
MPH
rain 1hr
in
rain 24hr
in
rain mn
in
humidity
%
barometer
mb
20260906111503 92 179 2.0 11.0 0.00 0.00 0.00 32 1022.6
20260906111003 93 159 2.0 5.0 0.00 0.00 0.00 32 1022.6
20260906110503 92 152 3.0 7.0 0.00 0.00 0.00 33 1022.6
20260906110003 92 147 2.0 7.0 0.00 0.00 0.00 33 1022.6
20260906105503 92 220 1.0 5.0 0.00 0.00 0.00 33 1022.6
20260906105003 92 237 3.0 7.0 0.00 0.00 0.00 34 1022.6
20260906104503 92 198 3.0 7.0 0.00 0.00 0.00 34 1022.7
20260906104003 92 157 2.0 7.0 0.00 0.00 0.00 34 1022.7
20260906103503 92 158 1.0 6.0 0.00 0.00 0.00 34 1022.7
20260906103003 92 242 0.0 4.0 0.00 0.00 0.00 35 1022.8
20260906102503 91 242 0.0 4.0 0.00 0.00 0.00 35 1022.8
20260906102003 92 0 0.0 0.0 0.00 0.00 0.00 34 1023.0
20260906101503 91 0 0.0 0.0 0.00 0.00 0.00 35 1023.0
20260906101003 90 160 0.0 2.0 0.00 0.00 0.00 36 1023.0
20260906100503 89 109 1.0 6.0 0.00 0.00 0.00 37 1023.0
20260906100003 89 122 2.0 6.0 0.00 0.00 0.00 38 1023.1
20260906095503 89 158 2.0 5.0 0.00 0.00 0.00 38 1022.9
20260906095003 89 152 2.0 5.0 0.00 0.00 0.00 38 1023.1
20260906094503 89 141 1.0 5.0 0.00 0.00 0.00 39 1023.1
20260906094003 90 154 1.0 6.0 0.00 0.00 0.00 37 1023.2
20260906093503 89 167 1.0 6.0 0.00 0.00 0.00 39 1023.1
20260906093003 88 198 1.0 4.0 0.00 0.00 0.00 40 1023.2
20260906092501 88 224 1.0 4.0 0.00 0.00 0.00 41 1023.2
20260906092001 87 207 2.0 5.0 0.00 0.00 0.00 42 1023.1
20260906091501 87 205 3.0 8.0 0.00 0.00 0.00 42 1023.2
20260906091001 86 203 4.0 8.0 0.00 0.00 0.00 42 1023.2
20260906090501 86 213 5.0 9.0 0.00 0.00 0.00 41 1023.3
20260906090001 86 203 5.0 9.0 0.00 0.00 0.00 41 1023.2
20260906085501 86 170 5.0 9.0 0.00 0.00 0.00 41 1023.2
20260906085001 86 180 5.0 10.0 0.00 0.00 0.00 40 1023.3
20260906084501 86 191 5.0 10.0 0.00 0.00 0.00 41 1023.1
20260906084001 85 193 6.0 10.0 0.00 0.00 0.00 42 1023.2
20260906083501 85 188 5.0 10.0 0.00 0.00 0.00 43 1023.1
20260906083002 84 195 4.0 8.0 0.00 0.00 0.00 46 1023.1
20260906082501 84 194 5.0 9.0 0.00 0.00 0.00 47 1023.1
20260906082001 84 180 5.0 9.0 0.00 0.00 0.00 47 1023.2
20260906081501 83 180 6.0 9.0 0.00 0.00 0.00 48 1023.1
20260906081001 83 187 6.0 11.0 0.00 0.00 0.00 50 1023.1
20260906080502 83 187 6.0 11.0 0.00 0.00 0.00 50 1023.0
20260906080002 82 187 6.0 10.0 0.00 0.00 0.00 52 1022.9
20260906075502 82 190 6.0 10.0 0.00 0.00 0.00 50 1022.9
20260906075001 82 192 7.0 10.0 0.00 0.00 0.00 52 1023.0
20260906074501 82 197 6.0 10.0 0.00 0.00 0.00 51 1022.8
20260906074002 81 190 6.0 10.0 0.00 0.00 0.00 56 1022.8
20260906073501 81 200 7.0 11.0 0.00 0.00 0.00 58 1022.8
20260906073002 81 215 7.0 11.0 0.00 0.00 0.00 57 1022.7
20260906072502 81 196 6.0 10.0 0.00 0.00 0.00 55 1022.7
20260906072001 80 172 5.0 9.0 0.00 0.00 0.00 59 1022.7
20260906071501 80 190 5.0 9.0 0.00 0.00 0.00 57 1022.7
20260906071002 80 198 6.0 9.0 0.00 0.00 0.00 60 1022.7
20260906070501 80 189 5.0 9.0 0.00 0.00 0.00 61 1022.7
20260906070002 80 194 6.0 10.0 0.00 0.00 0.00 64 1022.7
20260906065501 79 205 5.0 10.0 0.00 0.00 0.00 63 1022.7
20260906065002 79 215 5.0 8.0 0.00 0.00 0.00 63 1022.6
20260906064502 79 211 5.0 8.0 0.00 0.00 0.00 66 1022.5
20260906064002 78 204 5.0 9.0 0.00 0.00 0.00 67 1022.5
20260906063501 78 209 6.0 9.0 0.00 0.00 0.00 67 1022.4
20260906063002 78 204 5.0 9.0 0.00 0.00 0.00 67 1022.5
20260906062501 78 209 6.0 9.0 0.00 0.00 0.00 68 1022.4
20260906062002 77 213 6.0 9.0 0.00 0.00 0.00 69 1022.3
20260906061501 77 208 6.0 9.0 0.00 0.00 0.00 69 1022.4
20260906061001 77 207 6.0 9.0 0.00 0.00 0.00 69 1022.4
20260906060501 76 209 6.0 9.0 0.00 0.00 0.00 69 1022.4
20260906060003 76 212 7.0 9.0 0.00 0.00 0.00 69 1022.3
20260906055502 76 215 7.0 10.0 0.00 0.00 0.00 68 1022.4
20260906055002 76 214 7.0 10.0 0.00 0.00 0.00 66 1022.3
20260906054502 75 214 6.0 9.0 0.00 0.00 0.00 63 1022.4
20260906054002 75 215 7.0 11.0 0.00 0.00 0.00 60 1022.3
20260906053501 75 213 7.0 11.0 0.00 0.00 0.00 57 1022.3
20260906053002 75 211 7.0 11.0 0.00 0.00 0.00 54 1022.4
20260906052502 74 207 7.0 11.0 0.00 0.00 0.00 50 1022.3
20260906052001 74 203 7.0 11.0 0.00 0.00 0.00 49 1022.3
20260906051502 74 203 0.0 9.0 0.00 0.00 0.00 50 1022.1
20260906051001 73 219 0.0 5.0 0.00 0.00 0.00 1 1022.2
20260906050502 73 219 0.0 5.0 0.00 0.00 0.00 1 1022.2
20260906050002 73 219 0.0 5.0 0.00 0.00 0.00 1 1022.1
20260906045502 73 219 0.0 5.0 0.00 0.00 0.00 1 1022.2
20260906045002 73 219 0.0 5.0 0.00 0.00 0.00 1 1022.2
20260906044502 73 219 0.0 5.0 0.00 0.00 0.00 1 1022.2
20260906044002 73 219 0.0 5.0 0.00 0.00 0.00 1 1022.3
20260906043501 73 219 0.0 5.0 0.00 0.00 0.00 1 1022.2
20260906043002 73 219 0.0 5.0 0.00 0.00 0.00 1 1022.1
20260906042502 73 219 0.0 5.0 0.00 0.00 0.00 1 1022.1
20260906042002 73 219 0.0 5.0 0.00 0.00 0.00 1 1022.1
20260906041502 73 219 0.0 5.0 0.00 0.00 0.00 1 1022.1
20260906041001 73 219 0.0 5.0 0.00 0.00 0.00 1 1022.0
20260906040502 73 219 0.0 5.0 0.00 0.00 0.00 1 1022.0
20260906040002 73 219 0.0 5.0 0.00 0.00 0.00 1 1022.0
20260906035501 73 219 0.0 5.0 0.00 0.00 0.00 1 1022.0
20260906035001 73 219 0.0 5.0 0.00 0.00 0.00 1 1021.9
20260906034502 73 219 0.0 5.0 0.00 0.00 0.00 1 1021.9
20260906034002 73 219 0.0 5.0 0.00 0.00 0.00 1 1021.9
20260906033502 73 215 0.0 8.0 0.00 0.00 0.00 1 1021.9
20260906033002 73 213 6.0 9.0 0.00 0.00 0.00 1 1021.9
20260906032502 74 213 7.0 9.0 0.00 0.00 0.00 1 1021.8
20260906032002 74 210 7.0 11.0 0.00 0.00 0.00 1 1021.8
20260906031502 74 206 7.0 11.0 0.00 0.00 0.00 3 1021.8
20260906031002 74 205 7.0 11.0 0.00 0.00 0.00 3 1021.8
20260906030502 74 202 6.0 10.0 0.00 0.00 0.00 11 1021.9
20260906030002 74 202 6.0 10.0 0.00 0.00 0.00 10 1021.9
20260906025502 74 208 6.0 9.0 0.00 0.00 0.00 5 1021.8
20260906025002 74 213 6.0 9.0 0.00 0.00 0.00 12 1021.8
20260906024502 74 213 5.0 8.0 0.00 0.00 0.00 16 1021.8
20260906024002 74 209 5.0 8.0 0.00 0.00 0.00 17 1021.8
20260906023502 74 208 5.0 8.0 0.00 0.00 0.00 26 1021.9
20260906023002 74 211 5.0 8.0 0.00 0.00 0.00 29 1021.9
20260906022502 74 211 5.0 9.0 0.00 0.00 0.00 26 1021.9
20260906022002 74 210 6.0 11.0 0.00 0.00 0.00 27 1021.9
20260906021502 74 215 6.0 11.0 0.00 0.00 0.00 26 1021.9
20260906021002 74 217 5.0 9.0 0.00 0.00 0.00 31 1021.9
20260906020502 74 216 6.0 10.0 0.00 0.00 0.00 32 1022.0
20260906020002 74 212 7.0 10.0 0.00 0.00 0.00 35 1022.0
20260906015502 74 209 7.0 10.0 0.00 0.00 0.00 35 1022.0
20260906015002 74 212 7.0 11.0 0.00 0.00 0.00 35 1021.9
20260906014502 74 216 6.0 11.0 0.00 0.00 0.00 37 1022.0
20260906014002 74 217 6.0 10.0 0.00 0.00 0.00 37 1021.9
20260906013502 74 215 6.0 10.0 0.00 0.00 0.00 41 1021.9
20260906013002 74 227 6.0 9.0 0.00 0.00 0.00 41 1022.0
20260906012502 74 222 6.0 11.0 0.00 0.00 0.00 51 1022.0
20260906012002 74 209 7.0 11.0 0.00 0.00 0.00 47 1022.0
20260906011502 74 216 6.0 9.0 0.00 0.00 0.00 46 1022.0
20260906011002 74 223 6.0 9.0 0.00 0.00 0.00 46 1022.0
20260906010502 74 221 6.0 9.0 0.00 0.00 0.00 45 1022.0
20260906010002 74 217 6.0 9.0 0.00 0.00 0.00 50 1022.1
20260906005502 74 214 6.0 9.0 0.00 0.00 0.00 50 1022.1
20260906005002 75 216 7.0 11.0 0.00 0.00 0.00 47 1022.1
20260906004502 75 213 8.0 11.0 0.00 0.00 0.00 51 1022.1
20260906004002 75 210 7.0 10.0 0.00 0.00 0.00 55 1022.3
20260906003502 75 213 7.0 10.0 0.00 0.00 0.00 54 1022.2
20260906003002 75 215 6.0 10.0 0.00 0.00 0.00 56 1022.2
20260906002502 75 217 5.0 8.0 0.00 0.00 0.00 57 1022.1
20260906002002 75 225 4.0 8.0 0.00 0.00 0.00 58 1022.1
20260906001502 75 225 4.0 9.0 0.00 0.00 0.00 59 1022.2
20260906001002 75 218 5.0 9.0 0.00 0.00 0.00 59 1022.1
20260906000502 75 216 5.0 8.0 0.00 0.00 0.00 58 1022.1
20260906000003 75 216 4.0 7.0 0.00 0.00 0.00 59 1022.2
20260905235502 75 214 3.0 7.0 0.00 0.00 0.00 58 1022.2
20260905235003 75 221 3.0 8.0 0.00 0.00 0.00 52 1022.2
20260905234502 75 220 5.0 10.0 0.00 0.00 0.00 48 1022.3
20260905234002 75 215 6.0 11.0 0.00 0.00 0.00 47 1022.4
20260905233502 75 216 8.0 13.0 0.00 0.00 0.00 38 1022.3
20260905233002 75 219 9.0 13.0 0.00 0.00 0.00 39 1022.4
20260905232502 75 217 9.0 13.0 0.00 0.00 0.00 45 1022.2
20260905232002 75 216 10.0 13.0 0.00 0.00 0.00 51 1022.3
20260905231502 75 217 10.0 13.0 0.00 0.00 0.00 55 1022.3
20260905231002 75 217 10.0 14.0 0.00 0.00 0.00 54 1022.4
20260905230502 76 218 10.0 14.0 0.00 0.00 0.00 57 1022.4
20260905230002 76 219 9.0 13.0 0.00 0.00 0.00 58 1022.4
20260905225502 76 218 10.0 13.0 0.00 0.00 0.00 59 1022.4
20260905225002 76 216 10.0 13.0 0.00 0.00 0.00 60 1022.4
20260905224502 76 214 10.0 14.0 0.00 0.00 0.00 61 1022.4
20260905224002 76 214 9.0 14.0 0.00 0.00 0.00 61 1022.3
20260905223502 76 214 9.0 13.0 0.00 0.00 0.00 63 1022.4
20260905223002 76 213 9.0 13.0 0.00 0.00 0.00 61 1022.4
20260905222502 76 212 9.0 13.0 0.00 0.00 0.00 61 1022.5
20260905222002 76 210 9.0 13.0 0.00 0.00 0.00 64 1022.4
20260905221502 76 206 10.0 14.0 0.00 0.00 0.00 64 1022.5
20260905221002 76 206 10.0 14.0 0.00 0.00 0.00 65 1022.4
20260905220502 76 207 9.0 14.0 0.00 0.00 0.00 67 1022.4
20260905220006 76 208 9.0 13.0 0.00 0.00 0.00 69 1022.4
20260905215502 76 206 9.0 13.0 0.00 0.00 0.00 69 1022.2
20260905215002 76 201 8.0 12.0 0.00 0.00 0.00 69 1022.3
20260905214502 77 205 7.0 11.0 0.00 0.00 0.00 69 1022.2
20260905214002 77 209 6.0 9.0 0.00 0.00 0.00 69 1022.2
20260905213502 77 208 6.0 9.0 0.00 0.00 0.00 69 1022.3
20260905213002 77 207 6.0 10.0 0.00 0.00 0.00 69 1022.2
20260905212502 77 210 7.0 10.0 0.00 0.00 0.00 69 1022.3
20260905212002 77 206 8.0 12.0 0.00 0.00 0.00 69 1022.4
20260905211502 77 204 8.0 12.0 0.00 0.00 0.00 69 1022.4
20260905211002 77 206 8.0 11.0 0.00 0.00 0.00 69 1022.4
20260905210502 77 206 8.0 12.0 0.00 0.00 0.00 68 1022.4
20260905210002 77 206 8.0 12.0 0.00 0.00 0.00 68 1022.4
20260905205502 77 209 8.0 13.0 0.00 0.00 0.00 68 1022.4
20260905205002 77 212 9.0 13.0 0.00 0.00 0.00 68 1022.4
20260905204502 77 213 9.0 12.0 0.00 0.00 0.00 68 1022.5
20260905204002 77 215 9.0 12.0 0.00 0.00 0.00 68 1022.5
20260905203502 77 216 8.0 12.0 0.00 0.00 0.00 68 1022.4
20260905203003 77 212 9.0 12.0 0.00 0.00 0.00 68 1022.5
20260905202502 77 201 8.0 12.0 0.00 0.00 0.00 69 1022.6
20260905202002 78 202 8.0 12.0 0.00 0.00 0.00 69 1022.6
20260905201502 78 210 8.0 12.0 0.00 0.00 0.00 69 1022.5
20260905201002 78 214 8.0 12.0 0.00 0.00 0.00 69 1022.6
20260905200502 78 215 8.0 12.0 0.00 0.00 0.00 69 1022.6
20260905200002 78 215 8.0 11.0 0.00 0.00 0.00 69 1022.5
20260905195502 78 214 8.0 11.0 0.00 0.00 0.00 69 1022.6
20260905195002 78 208 8.0 11.0 0.00 0.00 0.00 68 1022.7
20260905194502 78 209 8.0 11.0 0.00 0.00 0.00 68 1022.6
20260905194002 78 211 8.0 11.0 0.00 0.00 0.00 68 1022.6
20260905193502 78 210 7.0 11.0 0.00 0.00 0.00 68 1022.6
20260905193002 78 208 8.0 11.0 0.00 0.00 0.00 69 1022.7
20260905192502 78 210 9.0 12.0 0.00 0.00 0.00 69 1022.7
20260905192002 78 209 8.0 12.0 0.00 0.00 0.00 69 1022.6
20260905191502 78 206 8.0 12.0 0.00 0.00 0.00 68 1022.6
20260905191002 78 206 8.0 12.0 0.00 0.00 0.00 69 1022.6
20260905190502 78 209 9.0 13.0 0.00 0.00 0.00 69 1022.5
20260905190004 78 208 9.0 13.0 0.00 0.00 0.00 69 1022.5
20260905185502 78 200 9.0 13.0 0.00 0.00 0.00 68 1022.3
20260905185002 79 200 9.0 14.0 0.00 0.00 0.00 67 1022.3
20260905184502 79 197 9.0 14.0 0.00 0.00 0.00 65 1022.2
20260905184002 79 195 9.0 14.0 0.00 0.00 0.00 64 1022.3
20260905183503 79 200 10.0 16.0 0.00 0.00 0.00 63 1022.1
20260905183002 79 198 10.0 16.0 0.00 0.00 0.00 63 1022.0
20260905182502 80 195 10.0 14.0 0.00 0.00 0.00 62 1021.9
20260905182002 80 197 9.0 14.0 0.00 0.00 0.00 62 1022.0
20260905181502 80 202 10.0 16.0 0.00 0.00 0.00 62 1022.0
20260905181002 80 202 9.0 16.0 0.00 0.00 0.00 61 1021.9
20260905180502 80 202 9.0 14.0 0.00 0.00 0.00 60 1021.9
20260905180002 80 205 9.0 13.0 0.00 0.00 0.00 59 1022.0
20260905175502 81 205 9.0 13.0 0.00 0.00 0.00 59 1021.9
20260905175002 81 202 8.0 13.0 0.00 0.00 0.00 59 1021.9
20260905174503 81 194 8.0 12.0 0.00 0.00 0.00 60 1021.9
20260905174002 81 186 8.0 12.0 0.00 0.00 0.00 59 1021.8
20260905173503 82 188 9.0 13.0 0.00 0.00 0.00 59 1021.8
20260905173002 82 189 8.0 13.0 0.00 0.00 0.00 57 1021.8
20260905172503 82 186 7.0 12.0 0.00 0.00 0.00 56 1021.8
20260905172002 83 185 8.0 12.0 0.00 0.00 0.00 55 1021.8
20260905171502 83 187 8.0 12.0 0.00 0.00 0.00 54 1021.8
20260905171002 83 188 8.0 12.0 0.00 0.00 0.00 52 1021.7
20260905170502 84 184 8.0 12.0 0.00 0.00 0.00 51 1021.8
20260905170004 84 187 9.0 13.0 0.00 0.00 0.00 51 1021.6
20260905165503 84 193 9.0 15.0 0.00 0.00 0.00 51 1021.9
20260905165003 84 191 9.0 15.0 0.00 0.00 0.00 51 1021.8
20260905164503 84 188 9.0 14.0 0.00 0.00 0.00 51 1021.7
20260905164003 85 182 8.0 13.0 0.00 0.00 0.00 51 1021.6
20260905163503 85 182 8.0 13.0 0.00 0.00 0.00 50 1021.7
20260905163003 85 189 9.0 13.0 0.00 0.00 0.00 49 1021.5
20260905162503 85 189 10.0 15.0 0.00 0.00 0.00 48 1021.6
20260905162003 85 190 9.0 15.0 0.00 0.00 0.00 47 1021.7
20260905161502 86 190 9.0 14.0 0.00 0.00 0.00 47 1021.8
20260905161003 86 191 9.0 15.0 0.00 0.00 0.00 48 1021.7
20260905160503 86 184 8.0 15.0 0.00 0.00 0.00 48 1021.8
20260905160003 86 181 9.0 14.0 0.00 0.00 0.00 49 1021.6
20260905155502 86 186 9.0 15.0 0.00 0.00 0.00 49 1021.6
20260905155003 86 184 9.0 15.0 0.00 0.00 0.00 50 1021.6
20260905154502 87 183 7.0 15.0 0.00 0.00 0.00 50 1021.6
20260905154002 87 177 7.0 13.0 0.00 0.00 0.00 50 1021.6
20260905153503 87 177 8.0 17.0 0.00 0.00 0.00 52 1021.8
20260905153003 87 179 8.0 17.0 0.00 0.00 0.00 52 1021.6
20260905152503 87 174 8.0 14.0 0.00 0.00 0.00 53 1021.6
20260905152003 87 176 7.0 13.0 0.00 0.00 0.00 52 1021.6
20260905151503 88 183 7.0 16.0 0.00 0.00 0.00 52 1021.6
20260905151002 88 186 8.0 16.0 0.00 0.00 0.00 52 1021.7
20260905150503 88 181 8.0 15.0 0.00 0.00 0.00 52 1021.6
20260905150003 88 173 5.0 14.0 0.00 0.00 0.00 50 1021.7
20260905145503 89 152 3.0 9.0 0.00 0.00 0.00 51 1021.6
20260905145002 88 134 4.0 10.0 0.00 0.00 0.00 53 1021.6
20260905144502 88 129 5.0 10.0 0.00 0.00 0.00 53 1021.7
20260905144003 88 77 6.0 12.0 0.00 0.00 0.00 52 1021.6
20260905143503 89 49 7.0 12.0 0.00 0.00 0.00 50 1021.6
20260905143003 90 43 5.0 11.0 0.00 0.00 0.00 48 1021.5
20260905142503 90 49 4.0 13.0 0.00 0.00 0.00 50 1021.5
20260905142002 89 45 6.0 13.0 0.00 0.00 0.00 51 1021.6
20260905141503 89 41 7.0 13.0 0.00 0.00 0.00 49 1021.7
20260905141003 89 48 7.0 13.0 0.00 0.00 0.00 49 1021.6
20260905140503 89 37 7.0 13.0 0.00 0.00 0.00 50 1021.6
20260905140003 90 34 7.0 13.0 0.00 0.00 0.00 48 1021.5
20260905135503 89 41 7.0 13.0 0.00 0.00 0.00 47 1021.5
20260905135003 90 41 6.0 12.0 0.00 0.00 0.00 46 1021.8
20260905134502 90 39 6.0 12.0 0.00 0.00 0.00 44 1021.6
20260905134003 90 46 7.0 13.0 0.00 0.00 0.00 40 1021.7
20260905133502 89 58 7.0 13.0 0.00 0.00 0.00 41 1021.6
20260905133003 89 57 7.0 13.0 0.00 0.00 0.00 39 1021.8
20260905132503 90 45 6.0 14.0 0.00 0.00 0.00 35 1021.8
20260905132003 90 42 7.0 14.0 0.00 0.00 0.00 37 1021.9
20260905131503 89 45 7.0 12.0 0.00 0.00 0.00 37 1021.8
20260905131003 89 51 7.0 12.0 0.00 0.00 0.00 36 1021.9
20260905130503 89 65 6.0 11.0 0.00 0.00 0.00 37 1021.9
20260905130003 89 63 6.0 11.0 0.00 0.00 0.00 35 1022.0
20260905125503 90 54 7.0 13.0 0.00 0.00 0.00 35 1022.1
20260905125003 89 44 7.0 14.0 0.00 0.00 0.00 35 1022.1
20260905124503 90 37 7.0 14.0 0.00 0.00 0.00 35 1022.1
20260905124003 90 39 7.0 13.0 0.00 0.00 0.00 34 1022.3
20260905123503 90 44 7.0 13.0 0.00 0.00 0.00 35 1022.3
20260905123003 90 42 6.0 13.0 0.00 0.00 0.00 36 1022.2
20260905122503 90 38 6.0 12.0 0.00 0.00 0.00 36 1022.1
20260905122003 90 41 7.0 12.0 0.00 0.00 0.00 37 1022.2
20260905121503 89 42 7.0 12.0 0.00 0.00 0.00 37 1022.3
20260905121003 89 40 8.0 13.0 0.00 0.00 0.00 36 1022.3
20260905120503 89 44 7.0 13.0 0.00 0.00 0.00 38 1022.5
20260905120003 89 45 8.0 12.0 0.00 0.00 0.00 37 1022.5
20260905115503 89 48 7.0 12.0 0.00 0.00 0.00 37 1022.6
20260905115003 89 46 6.0 11.0 0.00 0.00 0.00 39 1022.5
20260905114503 89 33 6.0 12.0 0.00 0.00 0.00 38 1022.6
20260905114003 90 38 6.0 12.0 0.00 0.00 0.00 37 1022.5
20260905113503 90 44 5.0 11.0 0.00 0.00 0.00 36 1022.6
20260905113003 89 61 5.0 11.0 0.00 0.00 0.00 35 1022.6
20260905112503 89 57 6.0 11.0 0.00 0.00 0.00 36 1022.6
20260905112003 89 55 6.0 11.0 0.00 0.00 0.00 38 1022.6